Overview Statistics Trail Chart Weather Telemetry Raw packets
 

This is the latest recevied weather packets stored in our database for station/object N7AWM. If no packets are shown the sender has not sent any weather packets the latest 10 day(s).

<< 5 6 7 8 9 10 11 >>
Time Temp. Humidity Pressure Rain* Wind** Luminosity Snow
1788474589 18.89° C 43% 1005.4 hPa 0 mm - - -
1788473749 18.33° C 43% 1005.5 hPa 0 mm - - -
1788472909 17.78° C 50% 1005.6 hPa 0 mm - - -
1788472069 18.33° C 48% 1005.7 hPa 0 mm - - -
1788471229 18.33° C 48% 1005.6 hPa 0 mm - - -
1788470389 17.78° C 50% 1005.7 hPa 0 mm - - -
1788469549 17.78° C 50% 1005.7 hPa 0 mm - - -
1788468709 17.78° C 50% 1005.6 hPa 0 mm - - -
1788467869 17.78° C 53% 1005.7 hPa 0 mm - - -
1788467029 17.22° C 53% 1006 hPa 0 mm - - -
1788466189 17.78° C 53% 1006 hPa 0 mm - - -
1788465349 17.78° C 52% 1006.1 hPa 0 mm - - -
1788464509 17.22° C 51% 1006.2 hPa 0 mm - - -
1788463669 17.22° C 51% 1006.2 hPa 0 mm - - -
1788462829 17.22° C 49% 1006.3 hPa 0 mm - - -
1788461990 16.67° C 53% 1006.5 hPa 0 mm - - -
1788461150 16.67° C 54% 1006.7 hPa 0 mm - - -
1788460310 16.11° C 54% 1006.8 hPa 0 mm - - -
1788459470 16.11° C 59% 1006.8 hPa 0 mm - - -
1788458790 15° C 62% 1007.2 hPa 0 mm - - -
1788458630 15° C 62% 1007.2 hPa 0 mm - - -
1788457790 15° C 63% 1007.2 hPa 0 mm - - -
1788456950 14.44° C 66% 1007.2 hPa 0 mm - - -
1788456110 13.89° C 68% 1007.1 hPa 0 mm - - -
1788455270 13.33° C 69% 1007.3 hPa 0 mm - - -

* Rain latest hour (hover to see other rain measurements)
** Current wind speed in m/s (hover to see current wind gust speed)